Weather Roundup
Issued by NWS Springfield, MO

Home | Current Version | Previous Version | Text Only | Print | Product List | Glossary On
Versions: 1 2 3 4 5 6 7 8 9 10 11 12 13 14 15 16 17 18 19 20 21 22 23 24 25 26 27 28 29 30 31 32 33 34 35 36 37 38 39 40 41 42 43 44 45 46 47 48 49 50
000
NZUS99 KSGF 042307
HRRSGF

HOURLY WEATHER
NATIONAL WEATHER SERVICE SPRINGFIELD MO
600 PM CDT WED MAY 04 2016

......SGF CWA......

CITY           SKY/WX    TMP DP  RH WIND       PRES   REMARKS
SPRINGFIELD    SUNNY     69  39  33 NW15      29.93R
JOPLIN         SUNNY     70  39  32 N16G23    29.97R
WEST PLAINS    SUNNY     69  34  27 NW16G26   29.88R
ROLLA          MOSUNNY   65  38  36 N14G25    29.88R
OSAGE BEACH    SUNNY     66  36  32 NW10G21   29.92R
BRANSON        SUNNY     68  37  32 NW13G22   29.93R

......SURROUNDING SGF CWA......

CITY           SKY/WX    TMP DP  RH WIND       PRES   REMARKS
CHANUTE        SUNNY     72  37  28 N13       29.98S
PARSONS        SUNNY     73  39  29 N13       29.99S
COFFEYVILLE    SUNNY     73  39  29 N12       29.98S
EMPORIA        SUNNY     71  36  27 N16G23    30.00S
GROVE OK       SUNNY     72  41  33 N13G18    29.97R
ROGERS AR      SUNNY     69  37  30 N9        29.96R
SILOAM SPRINGS SUNNY     70  39  32 N15       29.97R
HARRISON AR    SUNNY     70  35  27 N9G23     29.92R
NEAR YELLVILLE MOSUNNY  N/A N/A N/A N12G18    29.85S

......KANSAS AND MISSOURI......

CITY           SKY/WX    TMP DP  RH WIND       PRES   REMARKS
KANSAS CTY INT SUNNY     68  38  33 N14       29.97S
DOWNTOWN KC    SUNNY     70  35  27 N14       29.96S
COLUMBIA       SUNNY     67  33  28 N20G28    29.91R
SEDALIA        SUNNY     69  37  30 NW17      29.94S
ST JOSEPH      SUNNY     70  35  27 N18G25    29.98S
ST LOUIS       MOSUNNY   64  36  35 NW15G22   29.86R
SPIRIT OF STL  MOSUNNY   65  36  34 NW14G26   29.86R
KIRKSVILLE     SUNNY     64  33  31 N15G23    29.94R
WICHITA        SUNNY     73  32  22 N16       30.02F
TOPEKA         SUNNY     71  37  28 NW13G18   29.99S
OLATHE         SUNNY     68  35  29 NW14G23   29.98R

......TENNESSEE......

CITY           SKY/WX    TMP DP  RH WIND       PRES   REMARKS
MEMPHIS        MOSUNNY   76  42  29 NW14G24   29.78R
NASHVILLE      PTSUNNY   60  48  64 NW6       29.75S

......ARKANSAS.......

CITY           SKY/WX    TMP DP  RH WIND       PRES   REMARKS
FAYETTEVILLE   SUNNY     70  40  33 NW15G23   29.94R
FT SMITH       SUNNY     79  35  20 NW10      29.91R
LITTLE ROCK    MOSUNNY   81  39  22 NW15G24   29.82R

......OKLAHOMA.......

CITY           SKY/WX    TMP DP  RH WIND       PRES   REMARKS
TULSA          SUNNY     76  39  26 N14       29.95R
PONCA CITY     SUNNY     76  38  25 N17       30.00S
MCALESTER      MOSUNNY   80  45  28 N16       29.95R
OKLAHOMA CITY  SUNNY     78  44  29 N16       30.00S

......IOWA............

CITY           SKY/WX    TMP DP  RH WIND       PRES   REMARKS
DES MOINES     MOSUNNY   67  30  25 NW18G30   29.94F
QUAD CITIES    MOSUNNY   62  32  32 N14       29.84R

......ILLINOIS........

CITY           SKY/WX    TMP DP  RH WIND       PRES   REMARKS
QUINCY         SUNNY     62  35  36 NW20G28   29.89R
CHICAGO        CLOUDY    49  38  65 NE12      29.82R



USA.gov is the U.S. government's official web portal to all federal, state and local government web resources and services.